QPF
0.03 0.04 0.04 0.03 0.03 0.03 0.04 0.05 0.06 0.06 0.04 0.04 0.05 0.05 0.03 0.02 0.01 0.02 0.02 0.02 0.01 0.01 0.01 0.01 0.01 0.02 0.03 0.04 0.04 0.05 0.06 0.07 0.06 0.05 0.04 0.03 0.04 0.07
0.03 0.03 0.03 0.02 0.03 0.04 0.04 0.04 0.05 0.05 0.05 0.04 0.06 0.03 0.02 0.01 0.01 0.02 0.02 0.02 0.01 0.01 0.01 0.01 0.01 0.01 0.02 0.04 0.03 0.01 0.01 0.02 0.01 0.01 0.01 0.01 0.02 0.06
0.02 0.02 0.02 0.03 0.03 0.03 0.03 0.04 0.04 0.05 0.05 0.06 0.05 0.03 0.02 0.02 0.02 0.01 0.01 0.01 0.01 0.01 0.01 0.01 0.01 0.01 0.02 0.04 0.02 0.01 0.00 0.00 0.01 0.01 0.01 0.01 0.02 0.04
0.03 0.03 0.02 0.02 0.03 0.04 0.04 0.04 0.05 0.06 0.07 0.07 0.05 0.03 0.02 0.02 0.02 0.01 0.01 0.01 0.01 0.01 0.01 0.01 0.01 0.02 0.03 0.03 0.02 0.01 0.01 0.01 0.01 0.01 0.01 0.01 0.01 0.02
0.03 0.03 0.03 0.03 0.03 0.03 0.06 0.07 0.07 0.08 0.07 0.06 0.04 0.03 0.01 0.01 0.02 0.01 0.01 0.01 0.01 0.01 0.01 0.01 0.01 0.01 0.01 0.02 0.02 0.01 0.01 0.01 0.01 0.01 0.01 0.01 0.01 0.01
0.02 0.02 0.03 0.03 0.03 0.03 0.04 0.05 0.04 0.04 0.04 0.03 0.03 0.02 0.02 0.02 0.02 0.02 0.02 0.02 0.02 0.01 0.01 0.01 0.01 0.01 0.01 0.01 0.00 0.01 0.01 0.01 0.01 0.01 0.01 0.01 0.00 0.01
0.02 0.02 0.02 0.02 0.03 0.02 0.02 0.02 0.02 0.02 0.02 0.02 0.02 0.02 0.01 0.02 0.02 0.02 0.02 0.02 0.02 0.02 0.03 0.02 0.02 0.02 0.01 0.01 0.01 0.01 0.01 0.01 0.01 0.01 0.01 0.01 0.00 0.00
0.03 0.02 0.02 0.02 0.01 0.01 0.01 0.01 0.02 0.02 0.02 0.02 0.02 0.02 0.01 0.01 0.02 0.02 0.02 0.02 0.02 0.02 0.03 0.03 0.02 0.02 0.02 0.02 0.02 0.01 0.01 0.01 0.01 0.01 0.01 0.01 0.01 0.01
0.04 0.04 0.03 0.02 0.01 0.01 0.01 0.02 0.01 0.01 0.01 0.01 0.01 0.02 0.01 0.02 0.02 0.02 0.02 0.02 0.02 0.03 0.03 0.03 0.03 0.02 0.02 0.02 0.02 0.02 0.02 0.01 0.02 0.02 0.01 0.01 0.01 0.01
0.04 0.04 0.03 0.02 0.02 0.02 0.02 0.02 0.01 0.01 0.00 0.00 0.01 0.02 0.02 0.02 0.02 0.02 0.02 0.02 0.02 0.02 0.03 0.03 0.03 0.04 0.03 0.02 0.02 0.02 0.02 0.02 0.02 0.02 0.02 0.01 0.01 0.01
0.03 0.03 0.03 0.03 0.03 0.02 0.03 0.03 0.02 0.02 0.01 0.01 0.01 0.01 0.01 0.01 0.01 0.01 0.02 0.03 0.03 0.03 0.03 0.04 0.04 0.04 0.04 0.03 0.02 0.02 0.02 0.02 0.03 0.03 0.02 0.01 0.01 0.01
0.04 0.05 0.06 0.05 0.05 0.03 0.02 0.03 0.02 0.02 0.02 0.01 0.01 0.01 0.01 0.02 0.02 0.03 0.03 0.04 0.04 0.04 0.04 0.04 0.04 0.05 0.05 0.04 0.03 0.02 0.02 0.02 0.03 0.03 0.02 0.01 0.01 0.01
0.02 0.02 0.03 0.02 0.02 0.02 0.02 0.02 0.03 0.03 0.03 0.03 0.02 0.02 0.02 0.03 0.03 0.03 0.04 0.04 0.05 0.05 0.05 0.05 0.05 0.06 0.07 0.06 0.04 0.03 0.03 0.03 0.03 0.03 0.03 0.03 0.02 0.01
0.02 0.02 0.02 0.02 0.02 0.01 0.02 0.02 0.03 0.02 0.03 0.03 0.03 0.03 0.03 0.03 0.03 0.03 0.04 0.05 0.05 0.05 0.05 0.05 0.06 0.06 0.06 0.06 0.05 0.05 0.04 0.04 0.04 0.04 0.04 0.05 0.04 0.03
0.03 0.03 0.03 0.03 0.02 0.02 0.01 0.02 0.02 0.02 0.01 0.02 0.02 0.02 0.02 0.03 0.03 0.02 0.03 0.04 0.03 0.03 0.03 0.04 0.04 0.04 0.05 0.05 0.05 0.05 0.04 0.04 0.03 0.03 0.04 0.04 0.04 0.04
0.02 0.03 0.03 0.03 0.03 0.02 0.02 0.01 0.01 0.01 0.01 0.01 0.01 0.01 0.01 0.02 0.03 0.02 0.02 0.03 0.03 0.02 0.02 0.03 0.04 0.05 0.06 0.05 0.05 0.05 0.05 0.05 0.04 0.03 0.04 0.04 0.03 0.03
0.01 0.02 0.02 0.02 0.02 0.02 0.02 0.02 0.02 0.02 0.01 0.02 0.02 0.01 0.01 0.02 0.02 0.02 0.02 0.03 0.03 0.03 0.02 0.02 0.04 0.05 0.05 0.05 0.05 0.05 0.05 0.05 0.05 0.04 0.04 0.04 0.04 0.04
0.02 0.01 0.01 0.01 0.01 0.02 0.02 0.01 0.01 0.01 0.02 0.03 0.03 0.03 0.02 0.03 0.03 0.03 0.03 0.03 0.03 0.03 0.02 0.02 0.03 0.04 0.04 0.04 0.05 0.05 0.05 0.05 0.05 0.06 0.05 0.05 0.04 0.03
0.02 0.01 0.01 0.01 0.01 0.01 0.01 0.01 0.01 0.01 0.01 0.02 0.03 0.03 0.03 0.02 0.03 0.04 0.03 0.02 0.02 0.01 0.02 0.02 0.02 0.03 0.04 0.04 0.03 0.03 0.04 0.04 0.05 0.07 0.07 0.06 0.04 0.03
0.02 0.01 0.01 0.01 0.01 0.02 0.02 0.02 0.02 0.02 0.02 0.02 0.03 0.03 0.03 0.02 0.03 0.03 0.03 0.02 0.01 0.01 0.01 0.01 0.01 0.02 0.03 0.04 0.03 0.02 0.02 0.03 0.04 0.05 0.06 0.06 0.05 0.05
0.01 0.01 0.01 0.01 0.02 0.02 0.02 0.02 0.02 0.02 0.02 0.03 0.04 0.04 0.04 0.03 0.03 0.03 0.03 0.03 0.02 0.02 0.02 0.02 0.01 0.01 0.02 0.03 0.03 0.02 0.02 0.02 0.03 0.03 0.04 0.06 0.06 0.06
0.01 0.01 0.01 0.01 0.01 0.01 0.01 0.02 0.02 0.02 0.02 0.03 0.03 0.03 0.03 0.03 0.03 0.03 0.03 0.03 0.03 0.02 0.02 0.01 0.02 0.03 0.04 0.04 0.03 0.02 0.02 0.02 0.02 0.02 0.04 0.05 0.05 0.06
0.01 0.01 0.01 0.01 0.01 0.01 0.01 0.01 0.02 0.02 0.03 0.02 0.02 0.03 0.03 0.03 0.03 0.03 0.03 0.03 0.02 0.02 0.02 0.02 0.03 0.04 0.05 0.05 0.04 0.03 0.03 0.02 0.02 0.02 0.03 0.04 0.05 0.04
MSLP
1013.95 1014.32 1014.67 1015.01 1015.33 1015.66 1015.98 1016.29 1016.60 1016.90 1017.18 1017.45 1017.70 1017.96 1018.23 1018.54 1018.87 1019.25 1019.67 1020.13 1020.59 1021.04 1021.46 1021.83 1022.15 1022.39 1022.58 1022.72 1022.83 1022.92 1023.00 1023.09 1023.17 1023.23 1023.27 1023.27 1023.21 1023.09
1013.27 1013.67 1014.06 1014.43 1014.79 1015.14 1015.50 1015.84 1016.18 1016.50 1016.79 1017.07 1017.33 1017.59 1017.86 1018.15 1018.47 1018.83 1019.24 1019.67 1020.13 1020.58 1021.01 1021.41 1021.75 1022.05 1022.30 1022.50 1022.67 1022.82 1022.96 1023.08 1023.19 1023.27 1023.32 1023.31 1023.24 1023.10
1012.59 1013.03 1013.45 1013.87 1014.27 1014.67 1015.07 1015.45 1015.82 1016.16 1016.48 1016.78 1017.05 1017.31 1017.57 1017.84 1018.15 1018.48 1018.85 1019.25 1019.68 1020.11 1020.53 1020.93 1021.29 1021.62 1021.91 1022.16 1022.39 1022.60 1022.79 1022.96 1023.11 1023.21 1023.28 1023.28 1023.21 1023.08
1011.88 1012.36 1012.83 1013.30 1013.75 1014.21 1014.66 1015.09 1015.51 1015.90 1016.25 1016.57 1016.85 1017.11 1017.37 1017.62 1017.89 1018.19 1018.52 1018.87 1019.25 1019.64 1020.03 1020.41 1020.77 1021.10 1021.42 1021.71 1021.98 1022.24 1022.48 1022.70 1022.89 1023.03 1023.13 1023.16 1023.12 1023.02
1011.15 1011.66 1012.18 1012.69 1013.21 1013.73 1014.24 1014.74 1015.21 1015.65 1016.04 1016.39 1016.70 1016.97 1017.21 1017.45 1017.69 1017.95 1018.22 1018.52 1018.84 1019.17 1019.51 1019.85 1020.19 1020.51 1020.83 1021.14 1021.44 1021.74 1022.02 1022.29 1022.53 1022.73 1022.87 1022.95 1022.97 1022.91
1010.40 1010.94 1011.49 1012.05 1012.63 1013.21 1013.79 1014.36 1014.89 1015.38 1015.82 1016.20 1016.53 1016.81 1017.06 1017.28 1017.49 1017.71 1017.93 1018.17 1018.43 1018.70 1018.98 1019.27 1019.56 1019.86 1020.16 1020.47 1020.79 1021.12 1021.44 1021.76 1022.05 1022.31 1022.52 1022.67 1022.74 1022.75
1009.66 1010.21 1010.78 1011.38 1012.01 1012.65 1013.29 1013.91 1014.50 1015.05 1015.53 1015.95 1016.31 1016.60 1016.85 1017.06 1017.25 1017.43 1017.61 1017.80 1018.00 1018.21 1018.43 1018.67 1018.92 1019.18 1019.46 1019.76 1020.09 1020.43 1020.79 1021.15 1021.49 1021.81 1022.08 1022.30 1022.45 1022.53
1008.97 1009.51 1010.09 1010.72 1011.38 1012.06 1012.74 1013.41 1014.04 1014.63 1015.15 1015.60 1015.98 1016.29 1016.54 1016.75 1016.93 1017.09 1017.25 1017.40 1017.56 1017.72 1017.90 1018.08 1018.29 1018.51 1018.77 1019.06 1019.38 1019.74 1020.12 1020.51 1020.89 1021.26 1021.59 1021.87 1022.08 1022.23
1008.34 1008.87 1009.46 1010.09 1010.76 1011.46 1012.17 1012.86 1013.52 1014.13 1014.67 1015.14 1015.54 1015.86 1016.13 1016.35 1016.53 1016.69 1016.84 1016.97 1017.11 1017.24 1017.38 1017.54 1017.71 1017.91 1018.14 1018.41 1018.73 1019.08 1019.47 1019.88 1020.29 1020.69 1021.05 1021.37 1021.63 1021.83
1007.79 1008.32 1008.90 1009.53 1010.20 1010.90 1011.61 1012.30 1012.96 1013.57 1014.12 1014.60 1015.01 1015.35 1015.63 1015.87 1016.07 1016.25 1016.40 1016.54 1016.67 1016.80 1016.93 1017.07 1017.22 1017.39 1017.61 1017.86 1018.16 1018.50 1018.88 1019.29 1019.71 1020.11 1020.49 1020.82 1021.10 1021.32
1007.27 1007.81 1008.40 1009.03 1009.70 1010.39 1011.07 1011.75 1012.39 1012.98 1013.52 1013.99 1014.41 1014.77 1015.07 1015.34 1015.57 1015.78 1015.96 1016.13 1016.28 1016.42 1016.55 1016.68 1016.82 1016.99 1017.18 1017.41 1017.69 1018.01 1018.37 1018.75 1019.15 1019.53 1019.89 1020.21 1020.48 1020.69
1006.75 1007.32 1007.93 1008.57 1009.23 1009.90 1010.56 1011.19 1011.80 1012.36 1012.88 1013.35 1013.77 1014.14 1014.48 1014.78 1015.06 1015.31 1015.54 1015.75 1015.93 1016.09 1016.24 1016.38 1016.51 1016.67 1016.84 1017.05 1017.29 1017.58 1017.90 1018.24 1018.59 1018.94 1019.26 1019.54 1019.78 1019.96
1006.16 1006.80 1007.45 1008.10 1008.76 1009.40 1010.03 1010.63 1011.19 1011.72 1012.21 1012.67 1013.09 1013.48 1013.85 1014.20 1014.53 1014.84 1015.12 1015.38 1015.60 1015.80 1015.97 1016.12 1016.26 1016.39 1016.55 1016.72 1016.93 1017.17 1017.43 1017.72 1018.02 1018.31 1018.58 1018.81 1019.00 1019.14
1005.51 1006.21 1006.91 1007.59 1008.24 1008.87 1009.47 1010.02 1010.55 1011.03 1011.50 1011.94 1012.36 1012.78 1013.18 1013.58 1013.97 1014.34 1014.68 1015.00 1015.27 1015.51 1015.71 1015.87 1016.00 1016.13 1016.25 1016.39 1016.55 1016.73 1016.94 1017.16 1017.40 1017.63 1017.83 1018.02 1018.17 1018.28
1004.82 1005.58 1006.32 1007.02 1007.68 1008.29 1008.85 1009.37 1009.84 1010.29 1010.72 1011.15 1011.57 1012.01 1012.45 1012.90 1013.34 1013.78 1014.19 1014.56 1014.89 1015.17 1015.40 1015.57 1015.71 1015.82 1015.91 1016.01 1016.11 1016.24 1016.38 1016.54 1016.71 1016.88 1017.04 1017.19 1017.31 1017.41
1004.16 1004.97 1005.73 1006.45 1007.10 1007.68 1008.21 1008.68 1009.11 1009.51 1009.91 1010.31 1010.73 1011.17 1011.64 1012.13 1012.63 1013.13 1013.60 1014.04 1014.43 1014.75 1015.00 1015.20 1015.34 1015.43 1015.50 1015.55 1015.61 1015.68 1015.76 1015.86 1015.97 1016.10 1016.22 1016.34 1016.45 1016.56
1003.70 1004.51 1005.27 1005.97 1006.60 1007.14 1007.61 1008.03 1008.39 1008.74 1009.08 1009.44 1009.84 1010.28 1010.76 1011.27 1011.82 1012.36 1012.90 1013.39 1013.83 1014.21 1014.50 1014.72 1014.87 1014.96 1015.01 1015.03 1015.04 1015.06 1015.09 1015.14 1015.21 1015.29 1015.39 1015.51 1015.63 1015.77
1003.60 1004.37 1005.08 1005.74 1006.31 1006.79 1007.19 1007.52 1007.80 1008.07 1008.33 1008.63 1008.97 1009.37 1009.83 1010.35 1010.91 1011.49 1012.07 1012.62 1013.11 1013.54 1013.89 1014.14 1014.32 1014.42 1014.46 1014.47 1014.45 1014.43 1014.41 1014.42 1014.45 1014.51 1014.60 1014.72 1014.87 1015.05
1003.98 1004.66 1005.30 1005.87 1006.35 1006.74 1007.04 1007.26 1007.44 1007.59 1007.74 1007.93 1008.19 1008.51 1008.92 1009.40 1009.95 1010.53 1011.14 1011.73 1012.27 1012.76 1013.16 1013.47 1013.68 1013.82 1013.87 1013.88 1013.85 1013.80 1013.76 1013.74 1013.75 1013.79 1013.87 1014.01 1014.18 1014.40
1004.91 1005.47 1006.00 1006.46 1006.83 1007.09 1007.26 1007.35 1007.38 1007.38 1007.39 1007.43 1007.55 1007.75 1008.06 1008.46 1008.95 1009.52 1010.12 1010.73 1011.32 1011.86 1012.32 1012.69 1012.97 1013.15 1013.24 1013.27 1013.25 1013.20 1013.14 1013.10 1013.09 1013.13 1013.21 1013.35 1013.54 1013.80
1006.33 1006.76 1007.16 1007.49 1007.72 1007.85 1007.87 1007.79 1007.65 1007.47 1007.30 1007.16 1007.09 1007.13 1007.29 1007.57 1007.97 1008.47 1009.04 1009.65 1010.26 1010.85 1011.37 1011.81 1012.15 1012.40 1012.55 1012.62 1012.63 1012.59 1012.54 1012.50 1012.48 1012.50 1012.58 1012.72 1012.92 1013.19
1008.11 1008.40 1008.67 1008.86 1008.95 1008.93 1008.79 1008.54 1008.21 1007.83 1007.44 1007.09 1006.82 1006.65 1006.63 1006.74 1007.01 1007.41 1007.91 1008.49 1009.10 1009.72 1010.29 1010.80 1011.21 1011.53 1011.75 1011.88 1011.93 1011.93 1011.90 1011.86 1011.84 1011.86 1011.93 1012.06 1012.27 1012.54
1010.01 1010.19 1010.33 1010.40 1010.36 1010.19 1009.89 1009.47 1008.95 1008.37 1007.76 1007.18 1006.68 1006.29 1006.05 1005.98 1006.08 1006.34 1006.75 1007.26 1007.85 1008.47 1009.07 1009.63 1010.11 1010.51 1010.80 1010.99 1011.10 1011.15 1011.15 1011.13 1011.13 1011.15 1011.21 1011.34 1011.53 1011.79
Thickness
5712 5711 5711 5712 5712 5712 5711 5710 5705 5701 5701 5701 5701 5700 5698 5696 5694 5693 5691 5689 5688 5687 5686 5685 5684 5683 5682 5680 5678 5676 5674 5672 5670 5669 5667 5666 5665 5665
5708 5707 5707 5709 5709 5709 5708 5708 5707 5703 5699 5701 5698 5698 5695 5694 5691 5689 5687 5685 5684 5683 5682 5681 5680 5680 5679 5677 5675 5672 5670 5669 5667 5665 5663 5662 5661 5661
5705 5704 5703 5703 5705 5705 5705 5705 5705 5702 5697 5696 5695 5693 5691 5689 5688 5686 5685 5683 5682 5679 5677 5676 5676 5676 5675 5673 5670 5668 5667 5665 5664 5662 5660 5658 5657 5657
5700 5700 5699 5700 5698 5699 5700 5700 5700 5698 5696 5691 5690 5689 5686 5685 5684 5682 5682 5681 5679 5676 5674 5672 5671 5670 5670 5668 5666 5664 5663 5661 5660 5658 5656 5655 5654 5653
5697 5696 5696 5695 5694 5694 5694 5695 5695 5695 5693 5690 5686 5685 5684 5682 5680 5679 5679 5676 5676 5674 5671 5669 5667 5666 5664 5663 5662 5660 5659 5658 5656 5654 5652 5651 5650 5649
5695 5694 5693 5692 5690 5690 5689 5688 5689 5688 5686 5686 5684 5681 5680 5678 5676 5674 5674 5674 5673 5672 5670 5667 5665 5663 5661 5660 5658 5657 5655 5654 5652 5650 5649 5647 5646 5645
5691 5690 5689 5687 5685 5685 5686 5684 5683 5683 5683 5681 5679 5677 5675 5672 5671 5671 5669 5669 5669 5669 5667 5667 5665 5662 5660 5657 5655 5654 5652 5651 5649 5647 5645 5644 5642 5641
5687 5687 5686 5684 5681 5678 5677 5677 5676 5677 5676 5675 5674 5672 5669 5668 5666 5666 5665 5664 5663 5665 5662 5662 5662 5661 5659 5657 5653 5651 5649 5647 5645 5643 5641 5640 5638 5637
5684 5683 5684 5682 5679 5678 5674 5671 5670 5669 5669 5670 5669 5668 5666 5664 5661 5660 5659 5659 5657 5659 5657 5658 5658 5657 5656 5654 5650 5647 5645 5643 5641 5639 5637 5636 5634 5633
5681 5680 5678 5677 5675 5672 5671 5669 5668 5667 5666 5666 5665 5664 5662 5659 5657 5656 5654 5653 5654 5655 5653 5651 5653 5652 5653 5650 5647 5644 5641 5639 5637 5635 5633 5632 5630 5629
5677 5675 5673 5671 5667 5665 5666 5665 5664 5663 5661 5659 5657 5656 5653 5651 5650 5650 5650 5649 5650 5651 5650 5647 5647 5647 5648 5647 5644 5641 5638 5636 5634 5632 5630 5628 5626 5625
5672 5671 5666 5665 5661 5659 5661 5660 5658 5657 5657 5656 5653 5651 5649 5647 5644 5644 5645 5644 5644 5645 5645 5642 5642 5641 5642 5644 5641 5638 5635 5633 5631 5629 5627 5625 5623 5622
5669 5668 5665 5658 5656 5654 5654 5654 5652 5651 5652 5651 5650 5648 5647 5645 5643 5641 5640 5639 5639 5639 5639 5637 5636 5636 5635 5636 5636 5635 5633 5631 5628 5626 5623 5621 5618 5617
5663 5664 5660 5653 5651 5649 5649 5648 5646 5644 5647 5647 5645 5644 5642 5641 5640 5637 5635 5633 5632 5632 5631 5629 5629 5629 5628 5628 5629 5630 5629 5627 5626 5624 5621 5617 5614 5612
5657 5653 5651 5648 5646 5646 5643 5642 5641 5642 5642 5641 5639 5638 5637 5636 5634 5632 5630 5628 5627 5626 5625 5623 5623 5623 5623 5622 5623 5623 5622 5622 5621 5619 5617 5615 5612 5609
5651 5648 5644 5643 5642 5641 5640 5639 5638 5638 5635 5634 5634 5634 5632 5630 5628 5627 5625 5624 5622 5622 5620 5617 5616 5616 5616 5616 5616 5616 5616 5615 5614 5612 5610 5608 5607 5605
5645 5645 5644 5644 5642 5641 5639 5637 5634 5632 5630 5628 5627 5626 5625 5623 5621 5620 5619 5618 5617 5616 5615 5613 5612 5611 5610 5610 5610 5610 5609 5609 5608 5606 5603 5602 5601 5599
5636 5639 5639 5639 5638 5637 5635 5632 5629 5626 5624 5622 5620 5619 5617 5616 5614 5613 5612 5611 5609 5609 5608 5608 5607 5607 5606 5605 5602 5603 5603 5603 5602 5599 5598 5597 5596 5594
5631 5633 5633 5632 5630 5630 5628 5626 5623 5620 5617 5615 5613 5612 5610 5609 5607 5606 5604 5603 5603 5603 5603 5602 5601 5600 5599 5599 5598 5595 5595 5595 5595 5594 5593 5592 5590 5588
5628 5628 5627 5625 5623 5621 5619 5617 5615 5613 5610 5608 5606 5605 5603 5602 5600 5599 5598 5596 5596 5596 5596 5596 5595 5594 5593 5592 5592 5591 5587 5588 5588 5587 5586 5585 5583 5580
5623 5621 5619 5617 5614 5612 5610 5608 5606 5605 5602 5600 5599 5598 5596 5595 5593 5593 5592 5588 5587 5588 5589 5589 5588 5586 5587 5587 5586 5586 5584 5580 5579 5578 5578 5578 5577 5577
5615 5613 5610 5607 5605 5603 5601 5600 5599 5598 5595 5594 5593 5592 5590 5589 5588 5586 5585 5584 5583 5582 5582 5583 5582 5582 5582 5581 5580 5580 5579 5575 5573 5571 5569 5568 5568 5569
5605 5603 5601 5599 5597 5596 5595 5593 5592 5591 5588 5587 5586 5585 5584 5583 5582 5581 5580 5579 5578 5577 5576 5577 5577 5577 5577 5576 5575 5575 5573 5571 5569 5567 5565 5562 5560 5558